GFSNGP_850_rhum_210.txt.gz
RH
66 64 63 61 60 56 62 52 59 44 39 30 26 26 26 28 27 50 92 92 98 99 99 99 99 99 100 100 100 100 100 100 100 100 98 97 93 82 71 64 60 47 20 10
84 68 69 72 61 59 58 54 54 47 48 31 30 30 35 34 42 67 88 90 96 100 100 100 99 100 99 100 100 100 100 100 98 99 95 93 91 86 74 62 50 20 12 8
77 63 72 78 61 56 48 44 46 48 37 30 34 37 36 32 44 60 81 86 92 99 99 99 99 100 100 100 100 98 95 95 90 97 98 94 81 68 62 50 24 13 9 9
69 69 86 47 39 42 47 42 42 47 42 38 34 32 31 28 31 50 67 86 97 100 100 99 100 99 100 100 99 100 100 99 92 88 74 68 66 64 50 26 13 10 10 11
80 71 54 48 41 39 47 43 60 61 56 54 46 44 50 32 30 31 47 68 88 90 94 100 100 100 100 100 99 100 91 81 68 61 64 66 63 50 20 12 11 10 12 14
76 85 81 46 46 45 43 66 67 71 73 72 61 65 44 39 37 40 45 77 88 91 95 96 100 100 100 94 79 68 64 60 62 66 64 60 50 24 14 12 12 15 16 15
90 93 76 96 73 53 65 79 64 64 63 69 74 67 61 51 51 54 59 79 89 87 86 95 99 100 88 81 75 70 63 64 66 63 58 48 25 14 13 14 16 17 16 16
78 78 73 68 68 90 96 89 82 63 64 73 70 71 60 58 66 59 72 87 86 90 89 94 96 92 87 75 64 64 67 66 64 61 40 20 15 15 17 18 18 18 19 21
64 58 42 40 48 70 82 94 84 79 70 76 72 70 73 66 67 68 68 81 83 82 89 93 89 84 73 65 65 66 64 62 58 35 19 18 17 18 19 20 20 22 23 21
65 50 44 49 60 54 43 66 58 66 66 81 66 62 68 70 66 72 75 81 79 80 83 85 80 75 66 64 65 62 60 53 29 23 26 21 21 21 22 23 25 24 22 20
64 51 47 40 36 34 43 46 45 52 69 62 63 60 68 78 71 75 75 75 76 75 73 77 76 69 64 65 64 61 48 31 65 72 55 26 25 27 29 28 25 23 22 25
66 42 42 42 41 41 43 46 49 56 66 60 61 48 75 84 75 76 74 74 75 76 69 70 69 67 67 61 60 47 39 91 98 79 43 28 30 29 27 25 23 26 29 34
52 48 48 48 48 47 49 48 49 57 61 64 49 45 80 89 82 78 71 74 70 69 70 68 69 69 66 60 46 48 95 99 87 54 35 34 31 28 26 27 32 37 39 36
50 51 52 52 52 49 47 48 50 52 56 63 49 54 88 99 88 78 73 69 70 67 68 68 71 67 52 40 54 90 96 69 56 38 35 31 28 28 31 32 36 36 37 40
55 55 56 57 54 54 51 50 50 53 59 56 54 72 100 98 99 81 74 70 70 65 69 70 64 48 43 62 94 98 68 43 38 34 30 28 30 30 33 33 32 36 42 49
95 68 58 61 58 57 57 56 55 58 54 56 65 89 100 100 99 88 77 71 70 70 66 57 47 57 86 100 96 56 43 36 30 27 29 29 32 34 33 36 40 45 49 55
97 90 82 60 58 56 56 55 56 53 54 62 64 94 100 100 99 93 96 99 77 67 55 56 72 100 99 91 52 38 30 27 28 29 30 34 34 37 43 48 52 54 57 60
90 84 85 91 78 59 55 53 52 53 52 60 78 99 100 100 99 100 99 98 88 87 95 99 99 92 55 39 32 28 29 30 30 34 35 38 44 50 54 57 60 60 56 57
95 95 72 70 73 82 67 59 55 52 55 63 95 100 99 99 100 99 98 96 98 99 97 92 52 40 34 31 32 32 33 36 38 40 45 50 53 57 60 60 56 56 60 61
100 98 82 70 68 80 78 63 57 54 64 87 100 99 98 98 98 98 99 99 98 87 50 40 37 36 38 37 32 33 37 39 41 45 51 56 60 63 62 60 61 62 65 68
96 96 92 90 90 83 67 66 71 90 100 98 100 97 97 97 98 97 95 72 51 41 35 36 42 41 38 37 37 40 43 49 54 58 63 67 69 67 64 66 67 69 70 71
98 99 100 100 94 85 91 99 100 99 97 98 96 97 96 96 91 63 46 32 44 46 46 44 41 40 42 45 47 49 56 61 64 68 71 73 72 69 68 67 67 69 72 73
97 96 97 100 100 100 98 100 98 100 97 97 96 94 66 47 44 73 81 71 55 51 44 42 42 44 47 49 55 60 64 70 74 75 75 72 71 70 70 70 72 72 72 73
96 96 96 96 96 97 96 97 97 95 91 84 76 76 83 65 48 56 58 62 54 51 49 48 51 53 56 63 67 71 75 76 75 72 70 68 67 70 74 76 74 74 76 81
96 96 95 96 96 96 95 95 96 95 90 80 72 65 57 52 40 63 57 54 57 58 58 60 64 66 70 72 72 73 75 75 73 70 68 68 71 74 74 76 80 84 82 82
94 95 96 95 96 96 96 90 89 89 82 76 75 73 75 70 67 66 66 66 67 68 69 70 72 75 78 77 75 74 73 73 73 73 75 74 75 77 80 82 83 84 86 87
72 75 74 73 78 83 83 83 82 84 81 76 79 84 78 74 71 72 74 73 74 76 76 77 78 78 76 74 73 72 73 73 74 74 75 79 81 82 84 86 87 88 88 88

GFSNGP_850_rhum_213.txt.gz
RH
75 79 81 77 76 72 68 61 70 56 52 41 35 33 31 30 31 31 37 65 85 96 94 99 100 99 100 100 100 99 100 100 100 100 100 100 100 100 91 81 83 74 62 27
58 54 61 65 60 66 68 65 64 59 58 39 38 43 41 38 36 36 42 57 82 99 96 99 100 100 99 100 100 100 100 100 100 100 100 100 99 89 91 98 97 97 87 43
44 30 40 60 41 45 50 53 55 62 56 67 72 66 62 58 50 40 36 50 84 99 99 100 100 100 100 100 100 100 100 100 100 100 100 100 93 97 99 100 99 70 18 11
75 60 79 23 44 47 59 79 76 78 68 64 65 65 60 54 60 66 64 51 81 91 100 100 100 100 100 100 100 100 100 100 100 99 98 100 100 100 100 100 77 22 13 11
85 74 52 41 43 73 76 86 77 72 71 66 66 61 50 59 68 73 80 58 75 89 94 99 99 100 100 100 99 100 100 99 99 99 100 100 100 100 98 53 19 14 13 13
80 84 77 53 86 82 75 90 78 65 72 74 71 86 69 68 68 70 94 74 79 99 100 99 100 100 99 100 100 98 100 97 97 98 96 95 89 77 42 21 14 13 13 15
83 90 75 86 72 47 82 84 66 66 76 76 77 71 76 74 61 72 93 92 94 100 97 97 98 100 100 100 99 100 98 94 94 83 70 70 61 34 21 15 14 14 15 15
71 68 76 62 38 58 50 32 58 64 58 76 59 53 74 68 63 76 77 97 100 98 98 97 99 100 100 99 99 96 80 67 67 70 68 56 37 20 16 14 15 16 18 18
57 47 32 29 30 31 45 60 66 60 44 58 72 55 70 60 68 84 78 93 100 95 94 97 100 100 97 89 84 74 66 68 71 68 58 35 20 16 17 18 19 19 20 20
66 50 45 44 42 41 42 55 52 41 41 60 63 66 66 68 70 98 84 84 100 97 92 96 100 99 83 79 74 69 70 71 67 51 27 20 18 18 19 20 20 20 23 24
60 50 44 43 43 43 43 44 41 40 49 51 54 59 73 76 70 100 93 83 98 97 89 96 99 93 88 83 77 70 68 66 55 30 21 37 45 49 25 24 26 26 25 22
75 46 44 44 44 44 45 43 42 44 46 48 52 60 60 72 63 97 96 86 96 97 91 92 92 90 81 77 70 67 65 55 27 27 82 97 67 28 28 30 28 25 22 21
50 52 52 52 54 56 54 52 51 51 51 53 52 54 60 65 65 97 99 98 92 93 89 86 83 76 70 70 69 63 54 29 65 100 99 71 32 31 31 29 26 25 24 26
89 96 94 91 91 78 68 62 57 54 53 53 53 53 60 60 60 98 100 100 97 98 87 82 78 72 71 71 68 57 49 89 100 99 85 44 36 34 30 26 26 26 29 28
81 87 96 97 88 81 67 65 63 59 57 56 54 53 58 57 69 100 100 99 100 100 88 78 73 74 74 71 58 62 96 100 99 83 50 39 34 30 26 25 27 31 33 37
84 87 85 90 95 78 72 65 64 61 59 56 57 57 56 58 84 99 100 99 99 99 93 77 76 91 72 50 59 94 100 90 54 43 38 33 28 27 27 30 31 36 42 49
94 88 84 87 84 92 79 85 70 60 58 56 56 56 57 67 99 99 99 98 99 99 99 91 76 81 58 88 95 98 95 56 42 36 30 30 30 32 33 36 42 48 54 59
99 98 98 99 97 94 82 86 87 64 57 53 55 58 80 99 99 100 99 98 98 99 99 93 95 89 94 98 94 69 44 35 30 30 31 33 34 36 41 46 50 53 54 54
98 100 97 100 100 97 84 80 90 70 60 56 61 89 99 99 99 98 98 98 98 97 98 98 99 99 96 64 44 35 31 32 33 35 37 39 43 48 52 55 57 57 56 57
98 98 98 100 100 94 74 82 88 64 59 68 96 99 98 98 98 97 97 97 98 97 97 98 92 48 38 34 34 33 33 36 38 40 44 48 53 57 61 63 61 60 61 62
98 97 96 97 100 94 99 100 83 91 100 100 99 97 96 96 97 97 98 96 98 96 83 53 38 35 34 34 32 34 38 42 45 50 55 59 61 64 66 65 64 64 64 64
97 96 96 98 98 98 99 100 100 98 97 96 96 97 96 97 97 96 97 93 90 60 54 56 46 37 35 36 38 42 46 50 55 57 59 61 66 68 68 68 67 67 68 70
97 97 96 95 96 97 96 96 97 96 96 97 96 96 95 96 95 94 95 96 95 76 51 46 44 41 40 44 48 53 57 59 63 69 72 71 69 68 68 70 71 72 72 72
96 96 96 96 95 95 96 97 96 96 95 96 95 96 96 96 95 96 94 90 63 60 65 58 49 48 53 60 66 69 71 72 73 73 72 69 69 70 73 74 73 74 74 76
94 95 94 93 95 96 96 96 95 96 94 94 95 94 87 86 79 91 87 84 78 69 60 63 66 70 73 75 75 74 75 75 73 71 71 72 72 73 74 74 76 79 78 76
84 91 95 94 96 96 95 91 91 91 89 90 90 86 82 80 82 80 78 76 75 77 78 78 78 78 78 76 75 74 73 71 70 70 71 72 74 76 77 78 79 80 82 83
77 73 74 74 77 83 83 81 83 91 88 86 86 86 81 83 85 84 83 82 81 81 81 80 78 75 71 68 68 67 67 69 72 74 76 78 78 79 80 81 82 83 84 84

GFSNGP_850_rhum_219.txt.gz
RH
26 24 25 30 35 35 42 42 48 40 32 25 22 37 42 43 44 46 44 50 52 55 70 60 87 95 98 95 98 100 99 100 99 100 100 100 100 100 98 86 90 86 66 53
43 28 24 24 20 20 21 22 24 30 32 21 37 41 43 44 46 46 42 48 53 58 77 68 78 100 94 93 94 100 98 99 97 100 100 100 100 99 100 97 92 85 65 63
50 30 40 40 27 27 27 22 24 21 26 42 40 38 35 35 40 40 43 50 52 61 82 88 83 99 100 100 100 100 99 100 98 100 100 100 100 100 100 100 97 84 84 97
67 49 53 24 20 25 46 54 51 50 48 43 41 38 35 38 32 33 39 51 53 60 78 92 98 98 99 100 100 100 97 99 100 100 100 99 100 100 100 100 98 99 100 98
64 43 29 22 26 50 59 54 72 52 39 36 38 42 34 29 32 33 38 49 55 60 82 94 98 99 100 99 100 100 99 99 100 100 100 100 100 100 100 100 100 100 98 100
57 62 52 19 23 38 21 37 46 32 29 26 26 37 37 35 35 32 39 47 56 63 87 96 99 99 100 100 100 100 100 100 100 100 100 100 100 100 100 100 100 100 100 100
35 50 35 20 17 21 45 36 27 25 27 26 28 27 29 32 37 37 41 48 56 63 90 93 100 99 100 100 100 100 100 100 100 100 100 100 100 100 100 100 100 100 99 95
36 45 58 19 22 40 33 28 31 34 34 35 36 36 34 37 39 39 47 48 55 63 88 91 100 99 100 100 100 100 100 100 100 100 100 100 100 99 100 100 100 99 67 29
47 45 26 27 30 31 33 35 35 38 40 41 40 39 37 37 38 44 39 47 52 62 87 88 100 100 100 100 100 100 100 100 100 100 99 100 100 99 99 99 77 32 28 25
68 49 38 35 35 38 39 38 40 41 45 47 46 46 47 41 39 40 39 45 52 63 88 77 99 100 100 100 100 100 100 100 100 100 100 100 100 100 91 35 30 26 25 24
63 47 44 42 41 42 50 57 60 59 61 66 60 54 51 49 48 44 43 46 52 65 91 78 98 100 100 100 100 100 100 100 100 100 100 100 100 79 36 28 19 19 22 21
82 70 64 60 58 60 66 70 72 76 82 90 88 78 69 60 54 50 47 50 55 69 87 80 99 99 100 100 100 100 99 100 100 100 98 97 68 38 30 24 27 26 22 22
59 59 60 59 58 60 68 84 71 66 67 82 92 87 79 65 59 52 49 55 61 72 81 76 99 99 100 100 100 100 97 100 100 99 97 64 31 28 33 55 50 28 28 28
65 63 69 67 69 71 70 68 66 67 67 72 96 86 75 66 58 53 53 58 64 73 67 81 100 99 100 100 100 100 100 100 100 94 44 28 27 29 68 86 34 32 31 27
75 82 84 82 78 74 71 70 70 68 66 69 96 94 66 62 60 58 58 66 69 73 58 90 100 99 99 99 98 100 100 100 98 70 54 28 40 86 83 37 34 32 27 22
97 90 81 76 76 77 75 72 68 68 67 67 70 89 84 67 62 62 68 77 76 76 87 96 99 98 99 98 99 99 100 100 95 71 36 73 98 93 60 38 33 28 25 25
96 88 92 91 91 91 91 92 84 74 72 73 75 93 97 85 75 70 65 68 82 96 100 94 99 98 98 98 98 99 100 98 93 94 97 98 96 61 44 38 34 33 35 36
98 98 98 98 97 98 99 98 95 82 78 80 96 97 96 75 77 96 99 99 100 100 100 96 97 97 98 98 98 99 98 96 98 98 97 92 54 46 40 37 37 38 41 46
96 97 96 97 98 98 96 95 90 93 96 96 98 99 100 99 100 99 98 100 100 98 100 98 98 97 97 97 98 98 98 99 98 96 66 49 42 38 36 36 38 45 50 51
96 96 96 96 96 97 98 98 97 96 97 97 97 97 97 97 96 96 97 96 96 97 98 97 97 98 98 98 99 98 98 96 76 49 44 40 38 37 38 44 48 50 52 54
97 97 97 96 96 96 96 96 96 96 97 96 96 96 96 96 96 97 95 94 97 97 97 98 97 97 97 97 96 95 90 59 41 39 38 39 42 47 50 51 54 55 58 60
96 96 97 96 97 97 96 96 96 95 95 96 96 96 96 96 96 95 96 95 97 97 96 96 96 95 94 84 58 42 38 39 42 45 47 50 52 52 54 57 62 64 64 64
96 96 96 96 96 97 96 96 96 96 95 95 95 96 96 96 97 96 95 98 95 95 94 93 90 86 78 69 56 45 46 51 53 53 54 57 61 63 64 64 63 62 62 61
96 95 96 95 90 87 94 96 96 95 96 96 95 96 95 95 95 95 96 96 96 95 94 86 63 58 58 60 59 58 60 62 64 65 65 65 65 64 63 63 64 64 62 60
99 93 88 82 89 95 96 96 95 95 95 95 95 95 95 95 94 96 91 87 84 79 80 81 77 73 70 71 69 66 63 62 62 63 65 65 64 62 62 61 62 66 67 69
99 99 100 96 97 98 95 98 96 93 87 89 87 87 85 85 85 83 81 79 76 73 70 68 66 64 62 61 60 60 60 62 63 63 64 66 68 70 71 73 75 76 78 79
96 99 90 92 92 95 100 99 93 98 89 85 84 81 78 77 76 72 70 67 67 67 66 65 64 64 64 66 67 68 69 69 69 69 68 68 69 70 71 74 75 74 72 70

GFSNGP_850_rhum_222.txt.gz
RH
43 36 33 31 28 25 29 29 44 41 40 33 33 45 40 36 36 41 39 43 51 52 54 68 82 87 71 90 95 93 97 97 99 100 100 100 100 100 99 95 82 71 66 72
55 38 37 41 33 30 28 24 23 23 22 32 41 40 40 38 37 34 36 38 45 53 55 67 80 82 92 94 98 99 96 94 95 99 100 100 100 100 100 99 94 86 83 83
65 45 47 49 33 27 27 36 53 65 62 48 45 40 39 45 34 34 34 33 40 50 56 64 83 86 100 93 95 100 98 95 99 99 100 100 99 100 100 100 100 98 93 75
78 66 83 30 37 45 54 70 72 66 47 36 32 28 28 28 32 31 34 35 36 46 55 61 84 91 98 90 97 100 100 100 100 99 99 100 100 100 100 100 100 100 93 89
74 62 45 35 33 25 28 38 35 45 37 28 29 29 29 27 30 31 32 38 35 46 53 60 78 84 98 98 99 99 99 99 100 99 100 98 99 100 100 100 100 99 100 99
70 74 79 28 24 18 22 39 34 32 32 33 34 47 38 37 37 35 35 38 39 48 51 58 64 72 97 99 100 98 100 100 100 100 100 100 100 100 100 100 100 100 100 100
79 87 55 28 22 26 52 55 31 33 35 37 42 41 40 40 40 38 37 37 44 42 48 55 58 64 97 100 100 98 99 100 100 99 98 100 100 100 100 100 100 100 100 100
54 61 69 25 32 44 36 32 33 36 38 40 41 43 45 44 44 43 42 38 41 37 43 51 60 62 97 100 100 100 98 100 99 99 100 100 100 100 100 100 100 100 100 99
72 64 40 43 43 39 39 38 38 42 45 51 54 53 53 54 52 49 48 44 40 40 42 49 62 60 92 100 100 100 99 99 100 99 100 99 100 99 100 100 100 99 98 98
92 53 49 46 48 47 47 50 52 52 51 59 62 65 69 77 78 71 57 49 46 46 44 48 63 60 91 100 100 100 100 100 100 100 100 100 100 100 99 99 99 98 98 96
85 68 71 53 54 57 56 57 59 60 62 65 72 81 88 83 75 84 76 63 57 50 47 52 64 66 77 100 100 100 100 99 100 100 99 100 100 99 99 99 98 97 61 29
89 72 66 62 61 62 62 61 60 61 68 78 74 69 67 66 75 92 85 73 64 54 50 56 62 65 75 99 100 100 100 99 99 100 100 100 99 99 96 59 31 22 18 17
76 77 73 75 79 73 72 72 68 64 65 66 65 66 63 64 86 96 85 72 59 54 53 57 70 76 83 99 100 100 100 99 100 99 99 98 92 50 39 40 32 26 23 24
81 81 86 83 88 85 82 78 75 73 71 71 71 70 67 75 78 94 76 66 60 55 57 68 71 71 85 99 100 99 100 99 99 99 99 98 94 45 27 27 31 33 34 31
96 99 95 86 83 84 85 85 83 78 73 70 67 68 66 67 88 94 76 64 61 64 66 68 68 74 100 98 99 99 99 99 99 100 100 97 46 30 26 36 43 33 32 33
100 91 86 94 94 95 97 96 98 90 84 79 72 69 69 70 84 97 85 71 66 64 63 67 69 96 99 99 99 99 99 100 99 99 99 88 32 32 56 90 71 33 33 30
96 90 94 94 97 98 96 96 96 97 96 91 82 77 76 80 91 90 80 85 78 75 77 91 96 99 97 99 99 98 99 98 99 99 98 49 36 59 80 75 54 36 32 28
97 98 97 98 98 97 97 97 96 95 96 93 91 92 95 97 100 100 100 99 98 95 95 95 98 97 98 98 98 98 98 98 99 98 87 55 67 93 96 57 41 35 29 29
96 96 96 96 96 96 96 96 97 97 97 98 97 98 98 97 97 97 96 96 99 96 93 96 98 98 98 98 97 97 97 98 97 97 97 98 98 84 48 42 35 30 30 32
94 95 96 96 96 96 96 97 96 96 97 96 96 95 96 96 96 96 96 96 97 97 98 98 97 98 97 98 97 98 98 97 98 97 96 95 60 47 41 36 34 34 40 47
96 96 96 97 97 97 96 96 96 96 96 96 96 96 96 96 96 96 94 94 97 97 97 97 98 97 97 97 98 97 97 97 96 94 74 48 44 40 39 42 48 52 54 54
96 96 95 95 96 96 96 96 96 96 95 95 96 96 95 96 96 95 96 96 97 96 96 96 96 97 97 96 96 96 94 87 61 44 41 43 45 50 55 55 55 58 60 62
96 96 96 93 96 97 96 94 95 96 95 95 95 95 95 96 96 96 95 97 96 96 96 97 96 96 96 95 96 94 79 48 47 49 49 50 52 58 63 65 66 66 66 65
95 95 96 95 94 86 91 95 95 96 96 96 95 96 95 95 96 95 95 96 95 95 95 95 95 90 75 80 77 74 78 81 81 77 71 67 66 66 66 66 65 64 63 61
97 96 93 89 92 98 95 96 94 95 95 93 94 95 94 93 93 94 91 90 87 85 87 90 86 82 78 76 74 72 69 66 64 62 61 61 61 61 62 62 62 64 65 66
97 98 99 99 97 97 99 92 94 97 80 83 80 80 76 74 74 72 74 76 72 68 67 67 67 65 64 63 61 61 63 66 67 67 67 66 66 65 64 64 65 66 68 69
94 100 90 92 92 88 93 96 93 94 100 89 91 88 82 79 78 73 72 70 69 69 68 69 66 67 67 67 67 69 69 68 67 66 66 65 65 65 66 66 67 67 68 69

GFSNGP_850_rhum_228.txt.gz
RH
64 55 47 44 40 39 53 45 40 25 23 47 44 36 33 32 35 34 35 32 29 26 26 23 34 40 40 39 71 80 82 87 94 100 100 100 100 100 100 100 98 100 100 96
66 46 45 51 47 47 48 58 52 53 43 46 36 33 35 35 37 39 38 34 33 29 26 29 32 44 41 43 39 74 81 84 88 96 100 100 100 99 100 99 100 97 98 99
80 62 54 51 36 54 80 46 51 89 68 37 35 35 39 38 39 39 39 42 40 37 37 37 34 42 42 40 42 41 85 95 88 85 92 100 100 100 100 100 100 100 100 100
88 72 94 40 31 33 38 35 36 36 35 34 35 36 40 37 38 38 43 45 44 42 39 35 35 35 42 38 45 39 52 92 99 99 98 98 100 98 99 99 99 97 94 100
91 89 60 45 37 36 38 37 35 39 37 36 38 41 38 38 43 45 48 49 44 40 42 49 47 40 40 39 43 37 41 77 95 100 99 98 100 100 100 99 99 98 99 100
71 78 80 45 29 36 32 40 42 47 49 49 46 61 47 44 47 52 51 45 55 59 62 60 44 50 44 42 41 38 46 52 92 100 100 100 100 100 100 100 100 100 99 100
78 88 70 42 50 39 60 52 57 60 59 56 61 54 54 56 58 56 57 56 50 58 70 69 47 54 51 47 44 42 51 52 94 98 100 100 100 100 100 100 96 99 100 100
79 86 85 62 64 88 78 66 66 64 64 64 66 66 64 62 62 62 59 55 53 79 81 65 50 62 57 56 47 47 60 55 94 100 98 99 100 100 100 100 100 100 100 100
95 85 56 52 59 56 63 64 65 68 69 71 70 68 64 62 60 57 56 57 82 84 70 59 47 67 71 60 48 50 64 59 99 100 100 100 100 100 100 100 100 100 100 100
79 48 51 63 63 61 66 73 76 75 75 76 75 72 70 67 67 72 74 78 74 70 67 52 46 70 71 64 54 56 65 67 99 100 99 100 100 100 100 100 100 100 100 99
79 55 71 58 68 78 84 87 86 84 85 84 84 84 81 76 71 70 67 64 67 70 62 45 68 76 67 62 56 58 73 72 99 100 99 99 99 100 99 100 99 98 98 98
90 84 95 88 92 96 98 99 98 100 94 91 96 93 89 88 84 80 77 72 69 64 60 64 82 78 66 58 57 59 80 71 98 100 99 99 99 99 99 100 99 99 99 98
95 97 100 99 89 96 98 99 96 98 98 99 97 100 98 96 89 85 81 77 72 68 72 72 88 77 66 61 58 68 87 72 98 100 100 100 99 99 99 100 100 100 99 99
95 96 90 89 97 96 97 95 96 96 96 97 96 98 100 98 94 86 80 73 71 73 66 72 86 82 65 62 64 83 90 74 98 100 99 99 98 98 98 96 97 99 99 98
95 96 97 97 96 97 97 99 99 99 97 97 97 97 90 97 93 85 78 74 71 72 70 66 81 80 80 83 80 75 79 83 99 99 98 98 98 97 97 98 99 98 98 94
94 91 94 99 100 100 100 95 100 99 96 96 98 97 98 95 89 84 80 80 80 79 88 97 99 98 80 75 70 72 91 98 99 98 98 98 98 98 98 98 96 84 68 55
98 93 95 95 100 100 100 99 99 98 97 96 98 97 96 96 96 97 97 97 97 97 96 99 99 100 99 99 91 96 100 98 98 98 98 97 98 98 96 93 90 93 95 81
98 97 97 98 99 98 96 98 97 96 97 98 95 96 95 96 97 98 98 99 98 97 97 97 98 98 100 100 100 100 98 98 98 97 97 97 97 95 95 96 96 96 95 78
96 96 96 96 97 98 97 96 96 97 95 96 94 96 97 96 96 97 97 94 93 92 93 94 95 96 96 96 98 98 98 97 97 97 97 97 97 96 96 96 97 97 90 56
93 90 95 95 94 95 97 96 96 96 96 95 93 94 95 95 96 95 96 97 97 98 97 97 96 96 97 97 96 97 97 97 97 96 96 97 96 95 96 97 97 95 59 45
95 93 97 96 95 97 96 96 95 95 96 95 95 96 96 96 96 92 92 96 97 97 96 96 96 96 97 96 97 97 97 97 97 96 97 96 96 97 97 96 90 52 46 46
95 94 96 96 94 96 96 95 96 96 95 95 95 94 93 95 95 96 96 97 97 96 96 96 96 97 97 96 96 97 96 97 97 97 96 97 96 96 91 66 57 59 62 62
96 96 96 96 93 96 96 95 96 96 95 95 95 95 96 96 97 88 92 97 95 97 94 96 96 96 96 96 96 96 96 96 96 96 95 93 90 88 82 75 68 63 61 61
96 96 95 96 94 88 92 95 96 96 96 96 96 96 95 94 96 95 96 96 96 93 95 96 96 95 95 95 96 95 95 96 95 95 94 93 88 78 71 65 62 59 57 56
91 96 92 92 89 92 95 91 88 90 84 87 86 86 86 88 90 85 83 83 85 86 86 89 90 90 90 90 90 89 86 82 75 62 58 57 57 57 56 56 56 56 57 57
93 99 96 100 100 95 100 95 94 100 91 87 90 88 87 88 90 87 83 83 80 76 73 76 79 74 73 73 70 69 67 66 61 59 58 56 56 56 54 53 54 53 54 54
91 100 90 92 97 95 100 97 93 99 100 93 94 96 95 95 92 84 79 76 79 79 80 84 88 92 88 88 87 87 88 88 91 89 86 85 83 82 79 77 77 75 72 70

GFSNGP_850_rhum_231.txt.gz
RH
63 57 50 50 48 43 49 44 52 38 39 48 39 38 37 37 35 38 37 34 39 40 38 36 32 30 32 36 25 25 50 78 86 90 97 100 100 100 100 99 100 100 99 82
77 56 52 52 45 61 66 71 83 84 80 39 36 35 38 38 38 40 39 42 42 42 38 33 34 38 36 33 35 28 26 50 87 88 91 95 100 100 99 100 100 100 100 100
87 58 62 68 60 78 85 52 50 84 76 41 34 34 38 40 36 38 38 44 46 45 35 39 42 49 46 44 35 34 27 30 65 87 92 89 95 99 100 99 100 100 100 100
89 77 93 49 49 42 39 41 36 32 36 40 44 42 43 39 38 40 43 47 50 49 41 37 45 52 48 42 41 38 33 29 38 75 92 99 98 97 100 100 99 100 100 100
90 78 48 49 54 55 56 50 48 68 63 61 60 56 47 40 42 51 49 53 55 54 53 40 38 53 56 44 45 39 40 34 44 52 86 99 99 99 100 100 100 100 98 99
87 92 73 66 73 59 54 55 70 66 69 70 69 86 62 65 67 66 64 61 60 59 55 39 36 62 64 46 53 43 44 40 50 51 86 93 100 100 100 100 100 100 100 100
89 93 75 86 63 48 72 70 62 67 66 66 71 67 68 67 64 63 60 52 48 49 45 39 65 73 55 46 51 54 52 46 52 56 93 99 98 100 100 100 100 100 100 100
86 90 92 66 50 70 67 64 65 67 70 71 72 72 72 70 68 66 64 56 49 54 51 70 80 60 51 41 57 64 55 52 57 58 90 99 96 98 99 100 99 100 100 100
93 79 46 49 62 62 65 73 80 82 84 85 86 84 83 82 79 76 71 65 65 70 79 70 56 50 49 42 68 70 63 54 61 66 84 98 100 99 99 100 100 99 100 100
83 50 53 65 61 67 86 95 94 95 96 95 95 94 94 91 87 84 80 76 70 73 63 48 48 45 42 65 78 74 64 58 60 71 79 98 100 99 98 99 99 100 99 98
82 57 77 58 73 96 97 92 98 93 100 100 100 97 100 99 98 91 87 86 80 74 69 65 59 46 52 79 81 73 65 59 62 77 78 98 99 99 100 100 100 100 99 99
90 77 96 89 96 97 98 99 97 98 96 97 98 98 99 100 99 100 97 92 89 84 78 66 62 65 72 82 80 69 65 61 70 84 79 99 99 99 99 99 100 99 100 99
95 96 100 95 86 96 99 98 97 96 95 97 94 97 98 99 98 99 99 98 94 89 81 69 71 74 69 83 80 67 64 62 86 89 81 99 99 99 99 99 99 99 100 100
95 96 86 84 98 97 100 99 100 96 96 96 97 97 97 97 94 94 92 86 83 78 75 73 72 72 71 78 82 72 62 80 99 88 97 100 99 98 98 98 98 100 100 98
90 90 97 95 96 95 100 100 96 99 97 96 97 100 96 98 97 96 93 87 84 81 77 74 70 64 66 76 82 83 84 98 98 100 100 99 98 98 98 98 99 100 100 100
88 82 89 97 100 97 100 95 98 97 96 96 95 95 97 96 97 97 97 98 98 94 96 100 99 100 100 100 100 94 81 77 99 99 99 99 97 98 97 98 99 100 100 99
96 90 89 89 99 97 100 98 98 98 97 96 96 97 96 95 93 95 96 97 97 98 99 99 92 92 96 100 100 100 100 94 100 100 98 98 97 97 97 97 98 100 99 98
97 98 97 98 97 96 95 96 96 96 96 97 96 94 92 94 98 98 97 96 91 87 89 90 95 96 96 99 100 100 100 100 100 98 97 97 97 97 97 97 97 97 97 97
97 98 96 96 96 97 96 96 96 97 96 96 95 96 97 96 97 97 97 93 92 94 96 95 95 97 98 98 98 100 100 100 98 97 97 97 97 97 97 97 96 96 96 95
95 94 96 96 96 95 96 94 98 96 96 95 94 92 94 95 96 96 95 97 98 98 96 97 97 97 97 98 97 98 98 97 97 96 96 97 97 97 97 97 96 96 96 95
97 96 97 96 96 96 96 96 96 95 96 96 96 96 96 97 94 95 92 98 97 96 96 95 96 96 97 97 97 97 97 97 97 97 96 96 97 97 97 97 96 96 95 86
96 95 95 96 96 94 95 96 95 96 95 95 96 94 93 94 94 94 97 96 97 96 96 96 96 97 96 96 96 96 96 96 96 97 97 97 96 96 96 96 95 94 91 81
96 96 95 95 95 96 96 95 96 96 95 95 95 96 96 96 96 88 89 96 96 97 94 96 97 96 96 96 96 96 96 96 96 96 96 96 96 96 95 95 95 94 93 81
95 94 91 92 91 84 88 93 95 97 97 98 97 96 93 92 96 95 96 97 96 93 95 96 96 96 94 95 95 95 96 96 96 96 96 95 95 95 95 94 92 82 66 60
95 94 90 90 90 92 94 94 89 92 90 95 95 95 96 96 97 90 89 83 87 82 87 92 87 83 88 91 92 92 92 92 92 91 86 78 67 59 58 58 57 56 55 54
92 98 94 98 100 96 96 95 92 95 96 94 95 88 83 81 86 85 87 95 95 94 92 93 99 94 95 96 95 95 94 97 92 90 85 80 77 73 72 72 70 67 66 66
92 96 88 89 97 96 97 95 89 95 100 100 94 91 85 85 86 86 91 90 89 86 83 84 88 98 94 91 89 90 92 92 93 90 88 88 87 85 84 82 80 78 76 74

GFSNGP_850_rhum_234.txt.gz
RH
61 59 54 54 53 50 57 55 61 77 62 48 43 40 40 39 34 37 38 35 38 42 43 40 32 34 41 42 36 32 25 24 40 74 83 89 98 98 100 100 100 100 100 100
79 59 58 60 76 84 81 71 80 82 87 84 66 45 36 39 40 37 38 38 40 45 48 49 43 34 38 50 43 37 33 27 25 40 75 85 87 98 100 100 100 100 100 100
88 64 67 86 90 86 74 55 61 59 54 62 51 52 51 51 49 44 40 50 50 49 54 54 50 42 33 43 48 42 40 33 27 30 50 83 90 84 100 100 100 100 100 99
80 62 89 73 70 72 66 51 71 70 71 68 67 67 64 53 54 54 63 62 60 60 60 59 55 44 32 42 52 43 42 42 32 28 35 68 94 96 99 99 100 100 99 96
83 83 51 78 79 72 74 76 65 66 65 64 63 62 49 53 57 64 61 58 55 54 50 50 46 36 34 54 51 44 41 50 43 34 42 47 88 97 99 100 100 100 100 100
84 95 86 88 64 51 61 71 64 64 64 65 66 82 58 57 65 65 64 63 56 44 48 42 36 35 44 66 53 44 43 57 51 40 44 50 90 94 100 98 99 100 100 100
85 92 79 73 53 44 64 71 67 72 74 80 82 77 76 79 79 77 75 72 66 63 61 51 38 46 68 72 47 44 53 64 57 46 46 51 87 100 98 100 99 100 100 100
81 85 90 54 63 91 74 88 89 93 94 92 90 90 90 88 86 84 83 81 77 76 69 60 52 72 88 58 39 42 68 69 63 52 50 53 70 100 100 100 99 99 98 100
95 76 48 60 61 76 86 97 95 97 96 98 97 95 94 94 96 95 92 88 84 84 80 69 71 84 75 33 46 43 80 76 66 54 53 61 71 97 99 98 100 100 99 100
83 50 54 61 61 69 96 99 97 97 97 98 98 98 98 100 100 100 100 93 91 93 87 77 74 65 55 50 51 70 87 78 66 56 56 65 80 96 99 100 98 98 98 98
79 59 72 55 71 98 97 97 98 98 100 97 97 98 100 98 100 98 98 99 98 99 94 86 80 70 64 62 72 82 90 76 65 59 64 71 81 99 98 100 100 100 100 100
93 75 96 89 93 97 97 100 100 100 98 91 100 97 98 97 100 98 95 97 98 96 90 88 82 75 68 70 77 83 85 77 68 60 75 74 84 99 99 99 100 99 99 100
95 98 100 81 89 96 100 94 95 97 96 96 92 99 97 96 96 98 96 96 96 95 92 89 85 76 69 70 72 80 83 79 68 64 92 83 89 100 99 98 98 100 100 100
97 95 85 86 100 92 96 97 100 98 98 96 97 93 97 97 96 97 96 97 96 91 86 81 77 71 62 64 69 72 98 99 79 94 99 100 100 100 100 98 98 98 99 100
94 93 97 96 91 94 94 100 100 100 97 93 93 98 97 95 95 97 97 97 97 97 94 90 84 74 81 91 91 91 100 100 98 99 100 100 99 100 100 99 98 97 98 99
94 82 85 89 92 98 100 95 100 94 95 98 98 95 98 97 96 96 96 96 96 96 96 97 93 94 98 99 100 100 100 99 87 96 98 100 99 100 100 99 97 97 97 98
95 89 92 93 100 96 97 97 98 99 100 98 97 96 96 93 87 94 94 96 96 96 96 97 100 100 100 100 100 100 100 100 100 100 100 100 100 98 98 98 97 98 98 98
99 97 97 97 97 96 94 97 96 97 97 98 97 97 95 96 97 97 96 98 92 94 98 99 100 100 100 100 100 100 100 100 100 98 100 100 100 99 97 97 97 98 98 98
97 96 96 97 97 97 96 96 96 97 96 96 96 95 97 97 96 96 95 99 96 97 96 100 100 98 96 100 100 100 100 100 100 99 100 98 97 97 97 97 98 98 98 97
95 95 96 96 97 96 95 96 96 97 96 96 96 93 93 95 95 95 95 98 98 98 97 97 95 94 97 97 96 99 99 99 99 98 98 97 97 97 97 97 97 97 96 97
97 96 97 96 96 96 96 96 96 96 96 96 96 96 96 97 96 94 98 99 97 97 98 96 96 96 96 96 96 96 97 97 97 96 96 96 97 97 97 97 97 96 96 96
99 98 98 96 96 93 95 96 95 96 95 96 96 95 92 92 92 90 98 97 97 97 97 97 97 97 96 96 96 96 96 96 96 97 97 97 97 97 96 96 96 96 96 95
98 96 95 93 95 95 95 93 95 100 96 98 96 95 95 97 97 89 90 96 95 97 96 96 97 96 96 95 96 96 96 96 96 96 96 96 96 96 96 96 95 96 95 95
97 94 94 92 93 86 85 91 96 100 95 97 100 98 92 89 98 96 96 96 97 94 96 96 96 96 95 95 95 95 96 95 95 95 95 96 96 96 96 96 95 96 95 95
98 95 96 92 93 93 93 92 88 90 88 82 88 94 99 98 99 98 89 92 96 94 92 97 96 93 94 95 95 95 94 94 95 93 92 91 90 89 84 72 58 56 56 54
92 98 98 98 100 98 95 93 96 91 92 86 87 93 95 96 96 88 89 91 93 93 93 92 98 93 93 93 91 93 92 95 92 94 93 91 89 86 80 77 75 72 69 68
93 91 92 88 94 98 95 92 92 91 94 95 88 92 95 93 91 90 93 92 93 98 99 99 98 99 98 97 96 97 96 96 98 95 92 90 88 87 85 84 83 81 78 77

GFSNGP_850_rhum_240.txt.gz
RH
51 59 72 73 80 83 78 86 84 80 86 83 60 49 44 43 44 39 49 55 63 67 61 54 50 47 47 38 33 34 27 24 36 34 34 26 20 52 89 89 98 100 100 99
45 50 55 77 58 62 64 66 49 48 64 50 48 46 44 46 47 43 51 55 50 48 46 44 43 45 39 33 30 30 33 26 34 35 34 36 25 22 68 94 98 100 100 100
48 33 61 57 85 63 50 59 58 70 74 54 48 49 52 56 51 48 52 52 53 52 52 54 54 53 52 39 29 32 32 28 29 37 34 40 38 27 30 96 99 100 100 99
54 35 64 80 58 52 48 61 65 60 48 50 55 58 58 49 49 54 60 64 64 65 64 63 63 59 55 52 40 41 32 28 30 39 35 40 44 38 30 69 98 99 99 100
56 46 57 70 60 61 59 54 67 55 51 56 59 59 42 46 60 69 73 74 74 75 74 73 71 68 66 58 64 53 46 36 37 40 35 41 47 42 34 36 92 99 99 99
51 55 57 75 62 48 43 68 58 58 62 66 68 70 50 66 75 76 76 77 78 78 80 80 77 75 76 75 70 69 68 60 53 46 35 44 53 46 39 40 58 98 98 100
54 55 75 71 56 44 52 68 64 75 78 84 79 77 80 78 76 77 79 81 84 86 86 87 89 88 85 82 79 67 72 82 60 49 34 51 58 48 43 44 52 96 99 100
53 62 71 62 55 75 86 80 82 89 86 89 87 84 81 80 82 82 84 86 89 93 94 98 96 96 91 88 82 70 80 85 65 42 36 61 66 50 45 52 67 90 98 100
82 57 45 56 59 76 77 94 86 92 90 91 90 86 84 87 87 87 90 93 95 97 98 98 100 98 94 88 86 84 82 74 58 40 44 74 69 54 50 62 86 96 100 98
67 41 50 56 60 66 79 87 89 90 92 92 94 92 89 91 92 93 95 98 99 100 100 96 97 96 99 98 94 90 82 75 62 50 67 77 72 61 71 77 100 94 100 100
56 44 62 50 63 79 90 92 93 96 96 94 99 95 96 97 97 98 100 100 100 100 100 100 98 100 100 100 99 92 86 82 73 70 83 78 74 75 88 84 100 99 98 99
69 65 89 80 82 91 98 97 98 99 97 100 97 98 100 100 100 100 97 100 100 100 100 100 99 100 100 100 100 94 90 86 87 96 90 84 97 99 94 88 100 91 89 100
91 98 94 90 84 93 100 100 100 99 100 100 100 100 100 100 100 98 100 100 100 100 97 97 96 100 100 100 98 96 91 83 75 85 100 100 90 100 100 84 100 97 90 98
100 100 84 84 98 100 100 100 100 98 96 98 97 100 100 100 100 100 100 100 97 98 96 99 96 97 99 99 88 77 73 72 70 75 99 100 95 99 98 99 100 99 99 99
98 100 100 100 100 100 100 100 100 97 100 100 100 100 100 100 99 99 99 97 96 96 96 96 96 96 98 100 100 96 85 74 73 80 96 99 99 100 97 99 99 100 100 100
100 98 98 99 99 100 100 100 100 100 100 100 100 100 97 96 96 96 97 96 97 97 96 97 96 96 97 98 94 94 99 99 99 98 100 99 99 99 99 100 98 99 100 100
100 94 97 100 100 100 100 100 100 100 100 99 96 96 96 96 94 94 94 95 96 97 97 99 97 96 97 98 95 98 99 98 99 98 100 100 99 99 98 99 98 100 100 98
99 98 98 98 99 98 100 99 97 96 97 97 97 97 94 95 97 97 94 98 96 98 97 98 96 96 97 96 94 96 99 100 100 99 99 99 99 99 98 98 98 100 97 99
97 97 97 98 98 96 97 96 96 96 96 96 95 95 96 97 96 96 93 98 92 98 95 98 96 96 97 96 98 97 97 96 97 97 96 97 93 96 99 100 99 98 100 98
95 95 96 97 96 99 98 96 96 96 97 94 92 90 93 95 95 92 89 98 98 98 97 96 96 96 97 97 97 97 98 98 98 98 98 98 98 97 97 97 98 99 98 97
99 97 98 97 94 100 99 97 97 93 96 95 94 94 92 93 96 93 87 92 95 97 98 98 99 99 97 96 96 96 96 97 96 97 97 97 97 97 97 97 98 98 97 97
99 97 97 94 90 96 92 95 92 92 98 92 91 92 90 85 80 86 95 97 97 96 96 96 96 97 96 96 96 96 96 96 96 97 96 96 96 96 96 97 97 97 97 97
100 98 96 93 87 92 90 85 88 94 100 98 95 92 93 98 96 92 89 92 97 96 92 96 96 96 95 94 96 96 96 96 96 96 96 96 96 96 96 96 96 96 96 96
98 95 94 91 85 81 75 80 83 87 94 98 98 99 98 88 89 96 97 95 96 96 94 97 96 96 94 95 95 95 96 96 96 96 95 96 96 96 95 95 95 96 96 96
96 94 95 90 86 83 80 83 79 72 74 88 92 95 98 99 97 98 96 96 93 95 95 95 96 95 94 95 95 95 95 95 96 95 95 95 95 95 95 95 95 94 94 90
91 93 98 96 99 97 91 84 86 84 77 81 89 93 94 97 96 96 97 96 94 92 95 95 96 97 96 95 95 96 95 95 96 95 95 95 94 93 92 90 86 81 77 76
93 91 93 90 92 95 96 94 86 90 84 91 92 96 93 93 95 95 95 95 94 93 96 96 95 97 97 98 97 96 96 96 98 99 98 98 98 98 97 96 94 91 86 84